When you browse on this site, cookies collect data to enhance your experience and personalize the content and advertising you see.
Visit our Privacy Policy to learn more. By continuing to use the site, you agree to this use of cookies and data.
EN

Hourly Weather Rannee Utro

Today, 22 September, Tuesday

Time Temperature Precipitation Wind Pressure Humidity
00:00 +8°C° 0 mm 4 mps 748 mmHg 83%
01:00 +8°C° 0 mm 4 mps 748 mmHg 85%
02:00 +8°C° 0 mm 4 mps 748 mmHg 88%
03:00 +8°C° 0 mm 4 mps 748 mmHg 90%
04:00 +8°C° 0 mm 4 mps 748 mmHg 92%
05:00 +8°C° 0 mm 3 mps 748 mmHg 93%
06:00 +8°C° 0 mm 3 mps 748 mmHg 95%
07:00 +10°C° 0 mm 4 mps 748 mmHg 89%
08:00 +10°C° 0 mm 5 mps 748 mmHg 82%
09:00 +13°C° 0 mm 5 mps 748 mmHg 76%
10:00 +14°C° 0 mm 6 mps 748 mmHg 71%
11:00 +16°C° 0 mm 6 mps 748 mmHg 66%
12:00 +17°C° 0 mm 6 mps 748 mmHg 61%
13:00 +19°C° 0 mm 6 mps 748 mmHg 60%
14:00 +18°C° 0 mm 7 mps 748 mmHg 59%
15:00 +20°C° 0 mm 7 mps 748 mmHg 57%
16:00 +19°C° 0 mm 6 mps 747 mmHg 61%
17:00 +17°C° 0 mm 5 mps 747 mmHg 65%
18:00 +16°C° 0 mm 5 mps 747 mmHg 69%
19:00 +15°C° 0 mm 5 mps 747 mmHg 70%
20:00 +15°C° 0 mm 5 mps 747 mmHg 72%
21:00 +14°C° 0 mm 5 mps 748 mmHg 74%
22:00 +13°C° 0 mm 5 mps 747 mmHg 76%
23:00 +13°C° 0 mm 4 mps 747 mmHg 79%

Tomorrow, 23 September, Wednesday

Time Temperature Precipitation Wind Pressure Humidity
00:00 +12°C° 0 mm 4 mps 747 mmHg 82%
01:00 +12°C° 0 mm 4 mps 747 mmHg 84%
02:00 +11°C° 0 mm 4 mps 748 mmHg 87%
03:00 +10°C° 0 mm 3 mps 748 mmHg 90%
04:00 +10°C° 0 mm 3 mps 748 mmHg 92%
05:00 +10°C° 0 mm 3 mps 748 mmHg 93%
06:00 +9°C° 0 mm 3 mps 748 mmHg 95%
07:00 +11°C° 0 mm 3 mps 749 mmHg 89%
08:00 +12°C° 0 mm 3 mps 749 mmHg 83%
09:00 +14°C° 0 mm 3 mps 749 mmHg 77%
10:00 +16°C° 0 mm 3 mps 749 mmHg 69%
11:00 +18°C° 0 mm 3 mps 749 mmHg 60%
12:00 +20°C° 0 mm 3 mps 749 mmHg 52%
13:00 +20°C° 0 mm 3 mps 749 mmHg 51%
14:00 +21°C° 0 mm 2 mps 749 mmHg 50%
15:00 +21°C° 0 mm 2 mps 749 mmHg 49%
16:00 +19°C° 0 mm 2 mps 749 mmHg 55%
17:00 +19°C° 0 mm 1 mps 749 mmHg 61%
18:00 +16°C° 0 mm 1 mps 749 mmHg 68%
19:00 +16°C° 0 mm 1 mps 749 mmHg 70%
20:00 +15°C° 0 mm 1 mps 749 mmHg 72%
21:00 +13°C° 0 mm 0 mps 749 mmHg 74%
22:00 +14°C° 0 mm 1 mps 749 mmHg 76%
23:00 +14°C° 0 mm 1 mps 749 mmHg 77%

Day after tomorrow, 24 September, Thursday

Time Temperature Precipitation Wind Pressure Humidity
00:00 +13°C° 0 mm 1 mps 749 mmHg 79%
01:00 +13°C° 0 mm 1 mps 750 mmHg 81%
02:00 +12°C° 0 mm 1 mps 750 mmHg 83%
03:00 +12°C° 0 mm 1 mps 750 mmHg 84%
04:00 +12°C° 0 mm 1 mps 750 mmHg 85%
05:00 +12°C° 0 mm 1 mps 750 mmHg 87%
06:00 +10°C° 0 mm 2 mps 750 mmHg 88%
07:00 +13°C° 0 mm 2 mps 751 mmHg 81%
08:00 +15°C° 0 mm 2 mps 751 mmHg 74%
09:00 +17°C° 0 mm 2 mps 751 mmHg 67%
10:00 +18°C° 0 mm 2 mps 751 mmHg 61%
11:00 +20°C° 0 mm 2 mps 751 mmHg 56%
12:00 +21°C° 0 mm 2 mps 751 mmHg 50%
13:00 +21°C° 0 mm 2 mps 751 mmHg 48%
14:00 +23°C° 0 mm 2 mps 751 mmHg 45%
15:00 +23°C° 0 mm 2 mps 751 mmHg 43%
16:00 +21°C° 0 mm 2 mps 751 mmHg 49%
17:00 +19°C° 0 mm 2 mps 751 mmHg 54%
18:00 +17°C° 0 mm 2 mps 750 mmHg 60%
19:00 +16°C° 0 mm 2 mps 751 mmHg 63%
20:00 +16°C° 0 mm 2 mps 751 mmHg 66%
21:00 +15°C° 0 mm 2 mps 751 mmHg 69%
22:00 +14°C° 0 mm 2 mps 751 mmHg 70%
23:00 +14°C° 0 mm 2 mps 751 mmHg 71%

25 September, Friday

Time Temperature Precipitation Wind Pressure Humidity
00:00 +14°C° 0 mm 2 mps 751 mmHg 72%
01:00 +13°C° 0 mm 2 mps 751 mmHg 73%
02:00 +13°C° 0 mm 2 mps 751 mmHg 73%
03:00 +13°C° 0 mm 2 mps 751 mmHg 74%
04:00 +12°C° 0 mm 2 mps 751 mmHg 75%
05:00 +12°C° 0 mm 2 mps 752 mmHg 76%
06:00 +12°C° 0 mm 2 mps 752 mmHg 77%
07:00 +13°C° 0 mm 2 mps 752 mmHg 71%
08:00 +14°C° 0 mm 3 mps 752 mmHg 66%
09:00 +17°C° 0 mm 3 mps 752 mmHg 61%
10:00 +18°C° 0 mm 3 mps 752 mmHg 56%
11:00 +20°C° 0 mm 3 mps 752 mmHg 52%
12:00 +22°C° 0 mm 4 mps 752 mmHg 47%
13:00 +22°C° 0 mm 4 mps 752 mmHg 46%
14:00 +22°C° 0 mm 4 mps 752 mmHg 46%
15:00 +22°C° 0 mm 4 mps 752 mmHg 45%
16:00 +21°C° 0 mm 3 mps 752 mmHg 51%
17:00 +19°C° 0 mm 3 mps 752 mmHg 58%
18:00 +17°C° 0 mm 3 mps 751 mmHg 64%
19:00 +16°C° 0 mm 3 mps 752 mmHg 62%
20:00 +14°C° 0 mm 3 mps 752 mmHg 61%
21:00 +14°C° 0 mm 3 mps 752 mmHg 60%
22:00 +13°C° 0 mm 3 mps 752 mmHg 59%
23:00 +12°C° 0 mm 3 mps 752 mmHg 57%

26 September, Saturday

Time Temperature Precipitation Wind Pressure Humidity
00:00 +12°C° 0 mm 3 mps 752 mmHg 56%
01:00 +11°C° 0 mm 3 mps 752 mmHg 56%
02:00 +11°C° 0 mm 3 mps 752 mmHg 57%
03:00 +11°C° 0 mm 3 mps 752 mmHg 57%
04:00 +10°C° 0 mm 3 mps 753 mmHg 58%
05:00 +10°C° 0 mm 3 mps 753 mmHg 59%
06:00 +9°C° 0 mm 3 mps 753 mmHg 59%
07:00 +11°C° 0 mm 3 mps 753 mmHg 57%
08:00 +12°C° 0 mm 3 mps 753 mmHg 54%
09:00 +14°C° 0 mm 4 mps 753 mmHg 52%
10:00 +15°C° 0 mm 4 mps 753 mmHg 48%
11:00 +18°C° 0 mm 4 mps 753 mmHg 44%
12:00 +20°C° 0 mm 4 mps 753 mmHg 41%
13:00 +20°C° 0 mm 4 mps 753 mmHg 41%
14:00 +21°C° 0 mm 4 mps 753 mmHg 42%
15:00 +21°C° 0 mm 4 mps 753 mmHg 43%
16:00 +20°C° 0 mm 4 mps 753 mmHg 48%
17:00 +19°C° 0 mm 3 mps 752 mmHg 53%
18:00 +17°C° 0 mm 3 mps 752 mmHg 58%
19:00 +17°C° 0 mm 4 mps 753 mmHg 56%
20:00 +17°C° 0 mm 4 mps 753 mmHg 54%
21:00 +17°C° 0 mm 4 mps 753 mmHg 52%
22:00 +15°C° 0 mm 4 mps 753 mmHg 50%
23:00 +15°C° 0 mm 4 mps 753 mmHg 49%

27 September, Sunday

Time Temperature Precipitation Wind Pressure Humidity
00:00 +14°C° 0 mm 4 mps 754 mmHg 48%
01:00 +14°C° 0 mm 4 mps 754 mmHg 48%
02:00 +13°C° 0 mm 4 mps 754 mmHg 47%
03:00 +12°C° 0 mm 4 mps 754 mmHg 47%
04:00 +12°C° 0 mm 4 mps 755 mmHg 49%
05:00 +11°C° 0 mm 4 mps 755 mmHg 50%
06:00 +11°C° 0 mm 4 mps 755 mmHg 51%
07:00 +12°C° 0 mm 4 mps 755 mmHg 49%
08:00 +13°C° 0 mm 5 mps 755 mmHg 47%
09:00 +14°C° 0 mm 5 mps 755 mmHg 45%
10:00 +16°C° 0 mm 5 mps 755 mmHg 42%
11:00 +17°C° 0 mm 6 mps 756 mmHg 38%
12:00 +19°C° 0 mm 6 mps 756 mmHg 35%
13:00 +20°C° 0 mm 6 mps 755 mmHg 34%
14:00 +20°C° 0 mm 6 mps 755 mmHg 33%
15:00 +21°C° 0 mm 6 mps 755 mmHg 33%
16:00 +19°C° 0 mm 5 mps 755 mmHg 36%
17:00 +17°C° 0 mm 5 mps 755 mmHg 40%
18:00 +15°C° 0 mm 4 mps 755 mmHg 43%
19:00 +15°C° 0 mm 4 mps 755 mmHg 42%
20:00 +14°C° 0 mm 5 mps 755 mmHg 41%
21:00 +14°C° 0 mm 5 mps 755 mmHg 39%
22:00 +14°C° 0 mm 5 mps 756 mmHg 39%
23:00 +13°C° 0 mm 5 mps 756 mmHg 38%
Show more